TimeCST,TemperatureF,Dew PointF,Humidity,Sea Level PressureIn,VisibilityMPH,Wind Direction,Wind SpeedMPH,Gust SpeedMPH,PrecipitationIn,Events,Conditions,WindDirDegrees,DateUTC
12:14 AM,-16.6,-25.6,64,29.67,3.0,NW,16.1,26.5,N/A,,Haze,310,2014-01-27 06:14:00
12:33 AM,-16.6,-27.4,58,29.68,5.0,NW,13.8,31.1,N/A,,Haze,310,2014-01-27 06:33:00
12:54 AM,-18.4,-27.4,63,29.69,4.0,NW,12.7,20.7,N/A,,Haze,310,2014-01-27 06:54:00
1:14 AM,-18.4,-27.4,63,29.70,5.0,NW,12.7,27.6,N/A,,Haze,310,2014-01-27 07:14:00
1:33 AM,-18.4,-27.4,63,29.71,5.0,WNW,13.8,24.2,N/A,,Haze,300,2014-01-27 07:33:00
1:54 AM,-18.4,-29.2,58,29.73,5.0,WNW,10.4,21.9,N/A,,Haze,300,2014-01-27 07:54:00
2:13 AM,-18.4,-29.2,58,29.74,5.0,NW,12.7,21.9,N/A,,Haze,310,2014-01-27 08:13:00
2:33 AM,-20.2,-29.2,63,29.75,4.0,WNW,11.5,19.6,N/A,,Haze,300,2014-01-27 08:33:00
2:54 AM,-20.2,-29.2,63,29.76,4.0,WNW,12.7,21.9,N/A,,Haze,300,2014-01-27 08:54:00
3:14 AM,-20.2,-31.0,58,29.76,4.0,NW,18.4,25.3,N/A,,Haze,310,2014-01-27 09:14:00
3:34 AM,-20.2,-31.0,58,29.76,5.0,WNW,11.5,23.0,N/A,,Haze,300,2014-01-27 09:34:00
3:54 AM,-22.0,-32.8,57,29.78,3.0,WNW,18.4,27.6,N/A,,Haze,300,2014-01-27 09:54:00
4:13 AM,-22.0,-32.8,57,29.78,5.0,WNW,15.0,28.8,N/A,,Haze,300,2014-01-27 10:13:00
4:33 AM,-22.0,-32.8,57,29.79,5.0,WNW,16.1,27.6,N/A,,Haze,300,2014-01-27 10:33:00
4:54 AM,-23.8,-32.8,63,29.80,3.0,WNW,16.1,29.9,N/A,,Haze,300,2014-01-27 10:54:00
5:13 AM,-23.8,-32.8,63,29.80,5.0,WNW,17.3,26.5,N/A,,Haze,300,2014-01-27 11:13:00
5:33 AM,-23.8,-32.8,63,29.80,7.0,WNW,18.4,26.5,N/A,,Clear,300,2014-01-27 11:33:00
5:54 AM,-23.8,-34.6,57,29.82,10.0,WNW,13.8,26.5,N/A,,Clear,290,2014-01-27 11:54:00
6:14 AM,-23.8,-34.6,57,29.82,7.0,WNW,19.6,27.6,N/A,,Clear,290,2014-01-27 12:14:00
6:32 AM,-23.8,-34.6,57,29.83,7.0,WNW,13.8,28.8,N/A,,Clear,290,2014-01-27 12:32:00
6:54 AM,-25.6,-34.6,63,29.83,10.0,WNW,12.7,29.9,N/A,,Scattered Clouds,290,2014-01-27 12:54:00
7:14 AM,-25.6,-34.6,63,29.82,10.0,WNW,18.4,25.3,N/A,,Scattered Clouds,290,2014-01-27 13:14:00
7:33 AM,-25.6,-34.6,63,29.83,7.0,WNW,18.4,26.5,N/A,,Clear,290,2014-01-27 13:33:00
7:54 AM,-25.6,-34.6,63,29.83,5.0,WNW,16.1,33.4,N/A,,Haze,300,2014-01-27 13:54:00
8:14 AM,-25.6,-34.6,63,29.85,5.0,WNW,13.8,26.5,N/A,,Haze,290,2014-01-27 14:14:00
8:33 AM,-25.6,-34.6,63,29.85,4.0,WNW,15.0,29.9,N/A,,Haze,290,2014-01-27 14:33:00
8:54 AM,-25.6,-34.6,63,29.86,5.0,WNW,15.0,31.1,N/A,,Haze,300,2014-01-27 14:54:00
9:13 AM,-25.6,-34.6,63,29.86,7.0,WNW,15.0,24.2,N/A,,Clear,290,2014-01-27 15:13:00
9:34 AM,-22.0,-34.6,52,29.87,7.0,WNW,19.6,27.6,N/A,,Clear,300,2014-01-27 15:34:00
9:53 AM,-22.0,-32.8,57,29.88,7.0,WNW,16.1,25.3,N/A,,Clear,300,2014-01-27 15:53:00
10:13 AM,-20.2,-32.8,52,29.90,10.0,WNW,13.8,25.3,N/A,,Clear,300,2014-01-27 16:13:00
10:34 AM,-20.2,-32.8,52,29.91,10.0,WNW,6.9,20.7,N/A,,Clear,290,2014-01-27 16:34:00
10:53 AM,-18.4,-31.0,53,29.92,10.0,WNW,11.5,23.0,N/A,,Clear,300,2014-01-27 16:53:00
11:14 AM,-16.6,-29.2,53,29.92,10.0,WNW,10.4,21.9,N/A,,Clear,290,2014-01-27 17:14:00
11:33 AM,-16.6,-27.4,58,29.92,7.0,WNW,16.1,25.3,N/A,,Clear,300,2014-01-27 17:33:00
11:54 AM,-14.8,-27.4,53,29.92,5.0,WNW,15.0,23.0,N/A,,Haze,300,2014-01-27 17:54:00
12:13 PM,-13.0,-25.6,53,29.92,10.0,WNW,16.1,25.3,N/A,,Clear,290,2014-01-27 18:13:00
12:34 PM,-11.2,-25.6,49,29.91,10.0,NW,15.0,24.2,N/A,,Clear,310,2014-01-27 18:34:00
12:53 PM,-11.2,-23.8,54,29.91,10.0,NW,16.1,23.0,N/A,,Clear,310,2014-01-27 18:53:00
1:14 PM,-11.2,-23.8,54,29.92,7.0,WNW,11.5,24.2,N/A,,Clear,300,2014-01-27 19:14:00
1:33 PM,-9.4,-22.0,54,29.92,10.0,WNW,10.4,24.2,N/A,,Clear,300,2014-01-27 19:33:00
1:53 PM,-9.4,-23.8,49,29.93,10.0,WNW,15.0,25.3,N/A,,Clear,290,2014-01-27 19:53:00
2:14 PM,-9.4,-22.0,54,29.94,10.0,West,10.4,18.4,N/A,,Clear,280,2014-01-27 20:14:00
2:33 PM,-9.4,-22.0,54,29.94,10.0,West,9.2,-,N/A,,Clear,270,2014-01-27 20:33:00
2:54 PM,-9.4,-22.0,54,29.96,10.0,West,5.8,-,N/A,,Clear,280,2014-01-27 20:54:00
3:14 PM,-11.2,-22.0,59,29.96,10.0,West,12.7,18.4,N/A,,Clear,280,2014-01-27 21:14:00
3:33 PM,-11.2,-22.0,59,29.96,10.0,West,12.7,20.7,N/A,,Clear,280,2014-01-27 21:33:00
3:54 PM,-11.2,-22.0,59,29.96,10.0,West,13.8,19.6,N/A,,Clear,270,2014-01-27 21:54:00
4:13 PM,-13.0,-22.0,64,29.97,10.0,West,9.2,18.4,N/A,,Clear,280,2014-01-27 22:13:00
4:34 PM,-14.8,-23.8,64,29.97,10.0,West,10.4,19.6,N/A,,Clear,270,2014-01-27 22:34:00
4:54 PM,-14.8,-23.8,64,29.97,10.0,West,10.4,21.9,N/A,,Clear,270,2014-01-27 22:54:00
5:13 PM,-14.8,-23.8,64,29.97,10.0,West,11.5,21.9,N/A,,Scattered Clouds,270,2014-01-27 23:13:00
5:34 PM,-14.8,-23.8,64,29.97,10.0,West,15.0,25.3,N/A,,Clear,280,2014-01-27 23:34:00
5:54 PM,-14.8,-23.8,64,29.98,10.0,West,11.5,20.7,N/A,,Clear,280,2014-01-27 23:54:00
6:13 PM,-16.6,-23.8,70,29.97,10.0,West,16.1,21.9,N/A,,Scattered Clouds,280,2014-01-28 00:13:00
6:34 PM,-16.6,-25.6,64,29.97,10.0,West,16.1,28.8,N/A,,Scattered Clouds,280,2014-01-28 00:34:00
6:54 PM,-16.6,-25.6,64,29.97,5.0,North,-9999.0,-,N/A,,Haze,0,2014-01-28 00:54:00
7:13 PM,-16.6,-25.6,64,29.97,7.0,North,-9999.0,-,N/A,,Clear,0,2014-01-28 01:13:00
7:34 PM,-18.4,-25.6,70,29.97,7.0,North,-9999.0,-,N/A,,Clear,0,2014-01-28 01:34:00
7:54 PM,-18.4,-27.4,63,29.97,10.0,WNW,18.4,25.3,N/A,,Scattered Clouds,290,2014-01-28 01:54:00
8:13 PM,-18.4,-27.4,63,29.96,5.0,West,18.4,31.1,N/A,,Haze,280,2014-01-28 02:13:00
8:34 PM,-18.4,-27.4,63,29.96,7.0,WNW,11.5,27.6,N/A,,Clear,290,2014-01-28 02:34:00
8:53 PM,-18.4,-27.4,63,29.95,10.0,WNW,18.4,26.5,N/A,,Clear,290,2014-01-28 02:53:00
9:14 PM,-18.4,-27.4,63,29.96,10.0,WNW,16.1,31.1,N/A,,Clear,290,2014-01-28 03:14:00
9:33 PM,-18.4,-27.4,63,29.96,10.0,WNW,17.3,28.8,N/A,,Clear,290,2014-01-28 03:33:00
9:53 PM,-18.4,-27.4,63,29.96,10.0,West,17.3,27.6,N/A,,Clear,280,2014-01-28 03:53:00
10:13 PM,-18.4,-27.4,63,29.96,5.0,WNW,16.1,31.1,N/A,,Haze,290,2014-01-28 04:13:00
10:33 PM,-20.2,-29.2,63,29.96,7.0,WNW,18.4,29.9,N/A,,Clear,290,2014-01-28 04:33:00
10:54 PM,-20.2,-29.2,63,29.95,10.0,WNW,17.3,28.8,N/A,,Clear,290,2014-01-28 04:54:00
11:14 PM,-20.2,-29.2,63,29.93,7.0,WNW,18.4,33.4,N/A,,Scattered Clouds,290,2014-01-28 05:14:00
11:33 PM,-20.2,-29.2,63,29.93,10.0,WNW,17.3,26.5,N/A,,Scattered Clouds,290,2014-01-28 05:33:00
11:53 PM,-20.2,-29.2,63,29.93,7.0,WNW,15.0,28.8,N/A,,Scattered Clouds,290,2014-01-28 05:53:00